Homer, AK

9:30 AM AKST on February 27, 2017 (GMT -0900)
Homer

Weather History for PAHO - October, 2011

Change the Weather History Date:

Monday, October 17, 2011

  Actual Average Record
Temperature  
Mean Temperature 38 °F -  
Max Temperature 43 °F 44 °F 54 °F (2013)
Min Temperature 33 °F 31 °F 15 °F (1996)
Degree Days  
Heating Degree Days 27    
Moisture  
Dew Point 35 °F    
Average Humidity 90    
Maximum Humidity 100    
Minimum Humidity 80    
Precipitation  
Precipitation 0.00 in - - ()
Sea Level Pressure  
Sea Level Pressure 29.84 in    
Wind  
Wind Speed 1 mph (NE)    
Max Wind Speed 6 mph    
Max Gust Speed -    
Visibility 10 miles    
Events      
Averages and records for this station are not official NWS values.
T = Trace of Precipitation, MM = Missing Value Source: NWS Daily Summary

Daily Weather History Graph

Daily Weather History Graph

Search for Another Location

Airport or City:

Trip Planner

Search our weather history database for the weather conditions in past years. The results will help you decide how hot, cold, wet, or windy it might be!

Date:

Astronomy

Oct. 17, 2011 Rise Set
Actual Time 8:49 AM AKDT 6:52 PM AKDT
Civil Twilight 8:07 AM AKDT 7:34 PM AKDT
Nautical Twilight 7:19 AM AKDT 8:21 PM AKDT
Astronomical Twilight 6:31 AM AKDT 9:09 PM AKDT
Moon 9:36 PM AKDT (10/17) 3:12 PM AKDT (10/17)
Length of Visible Light 11h 26m
Length of Day
10h 02m
Waning Gibbous, 73% of the Moon is Illuminated
Oct 17
Waning Gibbous
Oct 19
Last Quarter
Oct 26
New
Nov 2
First Quarter
Nov 10
Full

Hourly Weather History & Observations

Time (AKDT) Temp. Windchill Dew Point Humidity Pressure Visibility Wind Dir Wind Speed Gust Speed Precip Events Conditions
12:53 AM 37.0 °F - 36.0 °F 96% 29.84 in 10.0 mi Calm Calm - N/A   Overcast
1:53 AM 36.0 °F - 36.0 °F 100% 29.84 in 10.0 mi Calm Calm - N/A   Mostly Cloudy
2:53 AM 36.0 °F - 36.0 °F 100% 29.84 in 10.0 mi Calm Calm - N/A   Overcast
3:53 AM 37.0 °F - 37.0 °F 100% 29.85 in 10.0 mi Calm Calm - N/A   Overcast
4:53 AM 36.0 °F - 36.0 °F 100% 29.85 in 10.0 mi Calm Calm - N/A   Overcast
5:53 AM 36.0 °F - 36.0 °F 100% 29.86 in 10.0 mi Calm Calm - N/A   Overcast
6:53 AM 34.0 °F - 34.0 °F 100% 29.86 in 10.0 mi Calm Calm - N/A   Overcast
7:53 AM 34.0 °F - 34.0 °F 100% 29.86 in 10.0 mi Calm Calm - N/A   Overcast
8:53 AM 33.1 °F - 33.1 °F 100% 29.87 in 10.0 mi Calm Calm - N/A   Mostly Cloudy
9:53 AM 34.0 °F - 33.1 °F 96% 29.87 in 10.0 mi Calm Calm - N/A   Overcast
10:53 AM 39.0 °F 36.8 °F 37.0 °F 93% 29.88 in 10.0 mi NE 3.5 mph - N/A   Overcast
11:53 AM 41.0 °F 38.0 °F 37.0 °F 86% 29.88 in 10.0 mi NE 4.6 mph - N/A   Mostly Cloudy
12:53 PM 39.9 °F 35.8 °F 37.0 °F 89% 29.88 in 10.0 mi ENE 5.8 mph - N/A   Overcast
1:53 PM 41.0 °F 38.0 °F 37.0 °F 86% 29.87 in 10.0 mi ESE 4.6 mph - N/A   Overcast
2:42 PM 41.0 °F 39.0 °F 35.6 °F 81% 29.86 in 10.0 mi SE 3.5 mph - N/A   Overcast
2:53 PM 41.0 °F - 37.0 °F 86% 29.86 in 10.0 mi Calm Calm - N/A   Overcast
3:19 PM 42.8 °F - 37.4 °F 81% 29.85 in 10.0 mi Calm Calm - N/A   Overcast
3:29 PM 42.8 °F - 37.4 °F 81% 29.85 in 10.0 mi Calm Calm - N/A   Overcast
3:53 PM 43.0 °F - 37.0 °F 80% 29.85 in 10.0 mi Calm Calm - N/A   Overcast
4:53 PM 43.0 °F - 37.0 °F 80% 29.84 in 10.0 mi Calm Calm - N/A   Mostly Cloudy
5:53 PM 41.0 °F 38.0 °F 36.0 °F 82% 29.83 in 10.0 mi North 4.6 mph - N/A   Overcast
6:12 PM 39.2 °F - 35.6 °F 87% 29.82 in 10.0 mi Calm Calm - N/A   Overcast
6:53 PM 39.0 °F - 36.0 °F 89% 29.83 in 10.0 mi Calm Calm - N/A   Overcast
7:53 PM 39.0 °F 36.8 °F 35.1 °F 86% 29.81 in 10.0 mi NNE 3.5 mph - N/A   Overcast
8:53 PM 37.0 °F - 33.1 °F 86% 29.81 in 10.0 mi Calm Calm - N/A   Scattered Clouds
9:53 PM 36.0 °F 31.1 °F 32.0 °F 86% 29.79 in 10.0 mi North 5.8 mph - N/A   Partly Cloudy
10:53 PM 36.0 °F 31.1 °F 32.0 °F 86% 29.78 in 10.0 mi North 5.8 mph - N/A   Clear
11:53 PM 36.0 °F 32.1 °F 30.9 °F 82% 29.77 in 10.0 mi NE 4.6 mph - N/A   Clear